| time (UTC) | temp F | wind direction | speed MPH | gust MPH | rain 1hr in | rain 24hr in | rain mn in | humidity % | barometer mb |
| 20260502223421 | 64 | 53 | 2.0 | 2.0 | 0.00 | 0.00 | 0.00 | 31 | 1019.0 |
| 20260502222919 | 63 | 144 | 1.0 | 7.0 | 0.00 | 0.00 | 0.00 | 30 | 1019.0 |
| 20260502222416 | 63 | 295 | 3.0 | 6.0 | 0.00 | 0.00 | 0.00 | 29 | 1019.0 |
| 20260502221911 | 64 | 132 | 4.0 | 5.0 | 0.00 | 0.00 | 0.00 | 31 | 1019.1 |
| 20260502221408 | 64 | 338 | 2.0 | 6.0 | 0.00 | 0.00 | 0.00 | 31 | 1019.0 |
| 20260502220905 | 64 | 146 | 1.0 | 3.0 | 0.00 | 0.00 | 0.00 | 30 | 1019.0 |
| 20260502220401 | 64 | 148 | 1.0 | 3.0 | 0.00 | 0.00 | 0.00 | 30 | 1019.1 |
| 20260502215857 | 64 | 303 | 2.0 | 3.0 | 0.00 | 0.00 | 0.00 | 32 | 1019.3 |
| 20260502215355 | 64 | 136 | 1.0 | 3.0 | 0.00 | 0.00 | 0.00 | 29 | 1019.5 |
| 20260502214851 | 64 | 137 | 1.0 | 3.0 | 0.00 | 0.00 | 0.00 | 29 | 1019.4 |
| 20260502214348 | 64 | 293 | 2.0 | 3.0 | 0.00 | 0.00 | 0.00 | 29 | 1019.5 |
| 20260502213846 | 64 | 343 | 4.0 | 5.0 | 0.00 | 0.00 | 0.00 | 30 | 1019.3 |
| 20260502213342 | 64 | 274 | 1.0 | 5.0 | 0.00 | 0.00 | 0.00 | 30 | 1019.4 |
| 20260502212841 | 62 | 315 | 6.0 | 7.0 | 0.00 | 0.00 | 0.00 | 29 | 1019.5 |
| 20260502212340 | 62 | 39 | 1.0 | 2.0 | 0.00 | 0.00 | 0.00 | 29 | 1019.5 |
| 20260502211836 | 63 | 310 | 7.0 | 8.0 | 0.00 | 0.00 | 0.00 | 29 | 1019.5 |
| 20260502211332 | 63 | 82 | 1.0 | 5.0 | 0.00 | 0.00 | 0.00 | 31 | 1019.5 |
| 20260502210829 | 63 | 350 | 3.0 | 6.0 | 0.00 | 0.00 | 0.00 | 29 | 1019.7 |
| 20260502210327 | 62 | 305 | 8.0 | 9.0 | 0.00 | 0.00 | 0.00 | 30 | 1019.7 |
| 20260502205824 | 61 | 340 | 1.0 | 3.0 | 0.00 | 0.00 | 0.00 | 30 | 1019.9 |
| 20260502205320 | 64 | 41 | 2.0 | 6.0 | 0.00 | 0.00 | 0.00 | 30 | 1019.8 |
| 20260502204817 | 64 | 32 | 0.0 | 5.0 | 0.00 | 0.00 | 0.00 | 31 | 1020.0 |
| 20260502204314 | 62 | 21 | 0.0 | 2.0 | 0.00 | 0.00 | 0.00 | 32 | 1020.2 |
| 20260502203811 | 62 | 48 | 0.0 | 1.0 | 0.00 | 0.00 | 0.00 | 29 | 1020.0 |
| 20260502203309 | 60 | 44 | 0.0 | 2.0 | 0.00 | 0.00 | 0.00 | 32 | 1020.1 |
| 20260502202809 | 62 | 323 | 6.0 | 8.0 | 0.00 | 0.00 | 0.00 | 32 | 1020.2 |
| 20260502202307 | 62 | 312 | 7.0 | 8.0 | 0.00 | 0.00 | 0.00 | 29 | 1020.2 |
| 20260502201805 | 62 | 314 | 5.0 | 6.0 | 0.00 | 0.00 | 0.00 | 30 | 1020.4 |
| 20260502201300 | 61 | 293 | 7.0 | 9.0 | 0.00 | 0.00 | 0.00 | 31 | 1020.1 |
| 20260502200757 | 60 | 152 | 3.0 | 3.0 | 0.00 | 0.00 | 0.00 | 32 | 1020.2 |
| 20260502200253 | 61 | 40 | 2.0 | 7.0 | 0.00 | 0.00 | 0.00 | 31 | 1020.6 |
| 20260502195752 | 62 | 47 | 0.0 | 3.0 | 0.00 | 0.00 | 0.00 | 31 | 1020.6 |
| 20260502195248 | 61 | 166 | 4.0 | 5.0 | 0.00 | 0.00 | 0.00 | 34 | 1020.5 |
| 20260502194744 | 62 | 298 | 2.0 | 3.0 | 0.00 | 0.00 | 0.00 | 31 | 1020.8 |
| 20260502194241 | 61 | 347 | 2.0 | 5.0 | 0.00 | 0.00 | 0.00 | 30 | 1020.8 |
| 20260502193737 | 60 | 323 | 3.0 | 8.0 | 0.00 | 0.00 | 0.00 | 30 | 1020.7 |
| 20260502193235 | 60 | 269 | 4.0 | 9.0 | 0.00 | 0.00 | 0.00 | 32 | 1020.7 |
| 20260502192735 | 61 | 130 | 1.0 | 5.0 | 0.00 | 0.00 | 0.00 | 32 | 1020.6 |
| 20260502192232 | 60 | 345 | 2.0 | 8.0 | 0.00 | 0.00 | 0.00 | 31 | 1020.7 |
| 20260502191729 | 62 | 306 | 3.0 | 5.0 | 0.00 | 0.00 | 0.00 | 31 | 1020.7 |
| 20260502191227 | 60 | 167 | 2.0 | 3.0 | 0.00 | 0.00 | 0.00 | 35 | 1020.9 |
| 20260502190724 | 60 | 17 | 2.0 | 5.0 | 0.00 | 0.00 | 0.00 | 31 | 1021.0 |
| 20260502190222 | 59 | 220 | 2.0 | 5.0 | 0.00 | 0.00 | 0.00 | 31 | 1021.0 |
| 20260502185721 | 59 | 264 | 3.0 | 7.0 | 0.00 | 0.00 | 0.00 | 32 | 1021.1 |
| 20260502185218 | 61 | 328 | 3.0 | 7.0 | 0.00 | 0.00 | 0.00 | 30 | 1021.0 |
| 20260502184714 | 60 | 76 | 1.0 | 2.0 | 0.00 | 0.00 | 0.00 | 34 | 1021.2 |
| 20260502184210 | 59 | 335 | 3.0 | 6.0 | 0.00 | 0.00 | 0.00 | 31 | 1021.1 |
| 20260502183707 | 59 | 25 | 3.0 | 5.0 | 0.00 | 0.00 | 0.00 | 32 | 1021.4 |
| 20260502183203 | 60 | 354 | 3.0 | 5.0 | 0.00 | 0.00 | 0.00 | 30 | 1021.5 |
| 20260502182658 | 59 | 315 | 4.0 | 10.0 | 0.00 | 0.00 | 0.00 | 32 | 1021.3 |
| 20260502182154 | 58 | 67 | 2.0 | 2.0 | 0.00 | 0.00 | 0.00 | 31 | 1021.6 |
| 20260502181652 | 59 | 95 | 0.0 | 6.0 | 0.00 | 0.00 | 0.00 | 34 | 1021.6 |
| 20260502181150 | 59 | 324 | 5.0 | 7.0 | 0.00 | 0.00 | 0.00 | 32 | 1021.4 |
| 20260502180647 | 58 | 154 | 2.0 | 5.0 | 0.00 | 0.00 | 0.00 | 32 | 1021.7 |
| 20260502180144 | 59 | 116 | 2.0 | 7.0 | 0.00 | 0.00 | 0.00 | 33 | 1021.6 |
| 20260502170108 | 58 | 32 | 1.0 | 5.0 | 0.00 | 0.00 | 0.00 | 35 | 1022.1 |
| 20260502164055 | 57 | 144 | 2.0 | 3.0 | 0.00 | 0.00 | 0.00 | 39 | 1022.2 |
| 20260502163551 | 56 | 20 | 1.0 | 7.0 | 0.00 | 0.00 | 0.00 | 38 | 1022.0 |
| 20260502163048 | 57 | 49 | 1.0 | 2.0 | 0.00 | 0.00 | 0.00 | 38 | 1022.2 |
| 20260502162545 | 56 | 358 | 7.0 | 9.0 | 0.00 | 0.00 | 0.00 | 40 | 1021.9 |
| 20260502162042 | 56 | 280 | 2.0 | 3.0 | 0.00 | 0.00 | 0.00 | 43 | 1022.0 |
| 20260502161538 | 56 | 316 | 4.0 | 8.0 | 0.00 | 0.00 | 0.00 | 44 | 1022.2 |
| 20260502161036 | 56 | 281 | 3.0 | 5.0 | 0.00 | 0.00 | 0.00 | 43 | 1022.2 |
| 20260502160534 | 56 | 85 | 0.0 | 1.0 | 0.00 | 0.00 | 0.00 | 43 | 1022.0 |
| 20260502151941 | 55 | 15 | 2.0 | 6.0 | 0.00 | 0.00 | 0.00 | 46 | 1022.1 |
| 20260502151438 | 55 | 277 | 5.0 | 6.0 | 0.00 | 0.00 | 0.00 | 48 | 1022.2 |
| 20260502150936 | 55 | 298 | 4.0 | 5.0 | 0.00 | 0.00 | 0.00 | 50 | 1022.2 |
| 20260502150432 | 54 | 51 | 3.0 | 7.0 | 0.00 | 0.00 | 0.00 | 50 | 1022.3 |
| 20260502130318 | 43 | 64 | 1.0 | 1.0 | 0.00 | 0.00 | 0.00 | 85 | 1021.7 |
| 20260502123803 | 39 | 64 | 0.0 | 0.0 | 0.00 | 0.00 | 0.00 | 96 | 1021.4 |
| 20260502123301 | 39 | 64 | 0.0 | 0.0 | 0.00 | 0.00 | 0.00 | 96 | 1021.6 |
| 20260502122757 | 38 | 64 | 0.0 | 0.0 | 0.00 | 0.00 | 0.00 | 96 | 1021.4 |
| 20260502122253 | 38 | 64 | 0.0 | 0.0 | 0.00 | 0.00 | 0.00 | 95 | 1021.4 |
| 20260502121751 | 37 | 64 | 0.0 | 0.0 | 0.00 | 0.00 | 0.00 | 95 | 1021.2 |
| 20260502121249 | 37 | 64 | 0.0 | 0.0 | 0.00 | 0.00 | 0.00 | 95 | 1021.3 |
| 20260502120746 | 37 | 64 | 0.0 | 0.0 | 0.00 | 0.00 | 0.00 | 95 | 1021.3 |
| 20260502120242 | 37 | 64 | 0.0 | 0.0 | 0.00 | 0.00 | 0.00 | 95 | 1021.3 |
| 20260502115740 | 37 | 64 | 0.0 | 0.0 | 0.00 | 0.00 | 0.00 | 95 | 1021.2 |
| 20260502115237 | 37 | 64 | 0.0 | 0.0 | 0.00 | 0.00 | 0.00 | 95 | 1020.7 |
| 20260502114732 | 37 | 64 | 0.0 | 0.0 | 0.00 | 0.00 | 0.00 | 95 | 1020.9 |
| 20260502114230 | 37 | 64 | 0.0 | 0.0 | 0.00 | 0.00 | 0.00 | 95 | 1020.7 |
| 20260502113727 | 37 | 64 | 0.0 | 0.0 | 0.00 | 0.00 | 0.00 | 95 | 1020.9 |
| 20260502113225 | 37 | 64 | 0.0 | 0.0 | 0.00 | 0.00 | 0.00 | 94 | 1020.5 |
| 20260502112723 | 37 | 64 | 0.0 | 0.0 | 0.00 | 0.00 | 0.00 | 94 | 1020.7 |
| 20260502112220 | 37 | 64 | 0.0 | 0.0 | 0.00 | 0.00 | 0.00 | 94 | 1020.7 |
| 20260502111717 | 38 | 64 | 0.0 | 0.0 | 0.00 | 0.00 | 0.00 | 94 | 1020.6 |
| 20260502111215 | 38 | 64 | 0.0 | 0.0 | 0.00 | 0.00 | 0.00 | 94 | 1020.8 |
| 20260502110712 | 38 | 64 | 0.0 | 0.0 | 0.00 | 0.00 | 0.00 | 94 | 1020.5 |
| 20260502110209 | 37 | 64 | 0.0 | 0.0 | 0.00 | 0.00 | 0.00 | 94 | 1020.7 |
| 20260502105707 | 38 | 64 | 0.0 | 0.0 | 0.00 | 0.00 | 0.00 | 93 | 1020.5 |
| 20260502105203 | 38 | 64 | 0.0 | 0.0 | 0.00 | 0.00 | 0.00 | 93 | 1020.6 |
| 20260502104701 | 38 | 64 | 0.0 | 0.0 | 0.00 | 0.00 | 0.00 | 93 | 1020.5 |
| 20260502104159 | 38 | 63 | 0.0 | 0.0 | 0.00 | 0.00 | 0.00 | 92 | 1020.7 |
| 20260502103656 | 38 | 63 | 0.0 | 0.0 | 0.00 | 0.00 | 0.00 | 92 | 1020.6 |
| 20260502103154 | 38 | 63 | 0.0 | 0.0 | 0.00 | 0.00 | 0.00 | 92 | 1020.5 |
| 20260502102650 | 38 | 63 | 0.0 | 0.0 | 0.00 | 0.00 | 0.00 | 92 | 1020.6 |
| 20260502102147 | 38 | 63 | 0.0 | 0.0 | 0.00 | 0.00 | 0.00 | 91 | 1020.6 |
| 20260502101645 | 39 | 63 | 0.0 | 0.0 | 0.00 | 0.00 | 0.00 | 91 | 1020.2 |
| 20260502101143 | 39 | 63 | 0.0 | 0.0 | 0.00 | 0.00 | 0.00 | 91 | 1020.0 |
| 20260502100641 | 39 | 63 | 0.0 | 0.0 | 0.00 | 0.00 | 0.00 | 91 | 1020.1 |
| 20260502100139 | 39 | 63 | 0.0 | 0.0 | 0.00 | 0.00 | 0.00 | 90 | 1020.1 |
| 20260502091113 | 41 | 62 | 0.0 | 0.0 | 0.00 | 0.00 | 0.00 | 84 | 1019.7 |
| 20260502090610 | 40 | 61 | 0.0 | 0.0 | 0.00 | 0.00 | 0.00 | 83 | 1019.9 |
| 20260502090107 | 40 | 62 | 0.0 | 0.0 | 0.00 | 0.00 | 0.00 | 82 | 1019.7 |
| 20260502071505 | 46 | 34 | 0.0 | 0.0 | 0.00 | 0.00 | 0.00 | 61 | 1019.3 |
| 20260502071003 | 47 | 38 | 0.0 | 0.0 | 0.00 | 0.00 | 0.00 | 61 | 1019.3 |
| 20260502070500 | 47 | 40 | 0.0 | 0.0 | 0.00 | 0.00 | 0.00 | 61 | 1019.4 |
| 20260502065958 | 47 | 30 | 0.0 | 0.0 | 0.00 | 0.00 | 0.00 | 59 | 1019.5 |
| 20260502065457 | 47 | 28 | 0.0 | 0.0 | 0.00 | 0.00 | 0.00 | 58 | 1019.5 |
| 20260502064954 | 48 | 25 | 0.0 | 0.0 | 0.00 | 0.00 | 0.00 | 57 | 1019.5 |
| 20260502064452 | 48 | 24 | 0.0 | 0.0 | 0.00 | 0.00 | 0.00 | 57 | 1019.4 |
| 20260502063949 | 49 | 19 | 0.0 | 0.0 | 0.00 | 0.00 | 0.00 | 55 | 1019.5 |
| 20260502063447 | 49 | 35 | 0.0 | 2.0 | 0.00 | 0.00 | 0.00 | 53 | 1019.4 |
| 20260502062944 | 49 | 28 | 0.0 | 2.0 | 0.00 | 0.00 | 0.00 | 53 | 1019.6 |
| 20260502062441 | 49 | 25 | 0.0 | 2.0 | 0.00 | 0.00 | 0.00 | 52 | 1019.5 |
| 20260502061940 | 49 | 21 | 0.0 | 3.0 | 0.00 | 0.00 | 0.00 | 52 | 1019.4 |
| 20260502061437 | 50 | 26 | 0.0 | 1.0 | 0.00 | 0.00 | 0.00 | 51 | 1019.4 |
| 20260502060933 | 50 | 12 | 2.0 | 2.0 | 0.00 | 0.00 | 0.00 | 50 | 1019.6 |
| 20260502060429 | 50 | 21 | 1.0 | 2.0 | 0.00 | 0.00 | 0.00 | 50 | 1019.5 |
| 20260502055926 | 50 | 22 | 0.0 | 2.0 | 0.00 | 0.00 | 0.00 | 51 | 1019.8 |
| 20260502055423 | 50 | 23 | 1.0 | 2.0 | 0.00 | 0.00 | 0.00 | 50 | 1019.5 |
| 20260502054918 | 50 | 329 | 3.0 | 5.0 | 0.00 | 0.00 | 0.00 | 50 | 1019.5 |
| 20260502054415 | 50 | 28 | 0.0 | 2.0 | 0.00 | 0.00 | 0.00 | 50 | 1019.5 |
| 20260502053912 | 51 | 320 | 3.0 | 5.0 | 0.00 | 0.00 | 0.00 | 49 | 1019.3 |
| 20260502053409 | 50 | 35 | 1.0 | 2.0 | 0.00 | 0.00 | 0.00 | 50 | 1019.6 |
| 20260502052906 | 51 | 42 | 0.0 | 2.0 | 0.00 | 0.00 | 0.00 | 49 | 1019.3 |
| 20260502052405 | 51 | 19 | 1.0 | 1.0 | 0.00 | 0.00 | 0.00 | 49 | 1019.5 |
| 20260502051902 | 51 | 51 | 1.0 | 2.0 | 0.00 | 0.00 | 0.00 | 49 | 1019.4 |
| 20260502051401 | 51 | 30 | 0.0 | 1.0 | 0.00 | 0.00 | 0.00 | 48 | 1019.4 |
| 20260502050857 | 51 | 337 | 1.0 | 3.0 | 0.00 | 0.00 | 0.00 | 48 | 1019.3 |
| 20260502050354 | 51 | 25 | 1.0 | 2.0 | 0.00 | 0.00 | 0.00 | 48 | 1019.2 |
| 20260502045850 | 52 | 20 | 0.0 | 2.0 | 0.00 | 0.00 | 0.00 | 47 | 1019.4 |
| 20260502045347 | 52 | 335 | 2.0 | 5.0 | 0.00 | 0.00 | 0.00 | 47 | 1019.4 |
| 20260502044844 | 52 | 22 | 0.0 | 2.0 | 0.00 | 0.00 | 0.00 | 47 | 1019.5 |
| 20260502044340 | 53 | 16 | 0.0 | 3.0 | 0.00 | 0.00 | 0.00 | 46 | 1019.3 |
| 20260502043837 | 53 | 357 | 1.0 | 2.0 | 0.00 | 0.00 | 0.00 | 46 | 1019.3 |
| 20260502043335 | 53 | 33 | 1.0 | 2.0 | 0.00 | 0.00 | 0.00 | 46 | 1019.3 |
| 20260502042834 | 53 | 323 | 3.0 | 3.0 | 0.00 | 0.00 | 0.00 | 46 | 1019.5 |
| 20260502042332 | 53 | 22 | 1.0 | 5.0 | 0.00 | 0.00 | 0.00 | 47 | 1019.4 |
| 20260502041830 | 53 | 40 | 0.0 | 2.0 | 0.00 | 0.00 | 0.00 | 47 | 1019.5 |
| 20260502041326 | 53 | 41 | 0.0 | 0.0 | 0.00 | 0.00 | 0.00 | 48 | 1019.2 |
| 20260502040824 | 52 | 33 | 0.0 | 2.0 | 0.00 | 0.00 | 0.00 | 47 | 1019.0 |
| 20260502040321 | 52 | 305 | 1.0 | 3.0 | 0.00 | 0.00 | 0.00 | 49 | 1019.1 |
| 20260502035817 | 51 | 26 | 0.0 | 2.0 | 0.00 | 0.00 | 0.00 | 54 | 1019.3 |
| 20260502035313 | 50 | 28 | 0.0 | 0.0 | 0.00 | 0.00 | 0.00 | 57 | 1019.5 |
| 20260502034811 | 49 | 68 | 0.0 | 0.0 | 0.00 | 0.00 | 0.00 | 66 | 1019.0 |
| 20260502034309 | 49 | 65 | 0.0 | 0.0 | 0.00 | 0.00 | 0.00 | 65 | 1019.0 |
| 20260502033807 | 50 | 65 | 0.0 | 0.0 | 0.00 | 0.00 | 0.00 | 64 | 1019.0 |
| 20260502033304 | 50 | 65 | 0.0 | 0.0 | 0.00 | 0.00 | 0.00 | 64 | 1019.0 |
| 20260502032801 | 51 | 65 | 0.0 | 0.0 | 0.00 | 0.00 | 0.00 | 63 | 1018.9 |
| 20260502032257 | 51 | 65 | 0.0 | 0.0 | 0.00 | 0.00 | 0.00 | 61 | 1018.9 |
| 20260502031755 | 51 | 65 | 0.0 | 0.0 | 0.00 | 0.00 | 0.00 | 60 | 1018.9 |
| 20260502031253 | 51 | 65 | 0.0 | 0.0 | 0.00 | 0.00 | 0.00 | 59 | 1019.1 |
| 20260502030751 | 52 | 65 | 0.0 | 0.0 | 0.00 | 0.00 | 0.00 | 62 | 1018.6 |
| 20260502030249 | 52 | 65 | 0.0 | 0.0 | 0.00 | 0.00 | 0.00 | 60 | 1018.6 |
| 20260502025746 | 52 | 65 | 0.0 | 0.0 | 0.00 | 0.00 | 0.00 | 61 | 1018.8 |
| 20260502025244 | 52 | 65 | 0.0 | 0.0 | 0.00 | 0.00 | 0.00 | 58 | 1018.7 |
| 20260502024741 | 52 | 65 | 0.0 | 0.0 | 0.00 | 0.00 | 0.00 | 56 | 1018.5 |
| 20260502024239 | 53 | 65 | 0.0 | 0.0 | 0.00 | 0.00 | 0.00 | 55 | 1018.5 |
| 20260502023737 | 53 | 54 | 0.0 | 0.0 | 0.00 | 0.00 | 0.00 | 54 | 1018.3 |
| 20260502023234 | 53 | 54 | 0.0 | 0.0 | 0.00 | 0.00 | 0.00 | 55 | 1018.4 |
| 20260502022732 | 54 | 54 | 0.0 | 0.0 | 0.00 | 0.00 | 0.00 | 52 | 1018.0 |
| 20260502022228 | 54 | 53 | 0.0 | 0.0 | 0.00 | 0.00 | 0.00 | 51 | 1018.2 |
| 20260502021725 | 55 | 54 | 0.0 | 0.0 | 0.00 | 0.00 | 0.00 | 51 | 1018.0 |
| 20260502021222 | 56 | 53 | 0.0 | 0.0 | 0.00 | 0.00 | 0.00 | 49 | 1018.1 |
| 20260502020719 | 57 | 53 | 0.0 | 0.0 | 0.00 | 0.00 | 0.00 | 46 | 1017.7 |
| 20260502020216 | 57 | 28 | 1.0 | 3.0 | 0.00 | 0.00 | 0.00 | 44 | 1017.9 |
| 20260502015715 | 57 | 37 | 0.0 | 1.0 | 0.00 | 0.00 | 0.00 | 43 | 1017.9 |
| 20260502015210 | 57 | 313 | 4.0 | 5.0 | 0.00 | 0.00 | 0.00 | 43 | 1017.9 |
| 20260502014708 | 57 | 40 | 0.0 | 0.0 | 0.00 | 0.00 | 0.00 | 44 | 1017.6 |
| 20260502014205 | 58 | 35 | 0.0 | 3.0 | 0.00 | 0.00 | 0.00 | 43 | 1017.5 |
| 20260502013701 | 58 | 25 | 2.0 | 2.0 | 0.00 | 0.00 | 0.00 | 41 | 1017.4 |
| 20260502013156 | 59 | 324 | 1.0 | 3.0 | 0.00 | 0.00 | 0.00 | 41 | 1017.3 |
| 20260502012654 | 59 | 1 | 4.0 | 6.0 | 0.00 | 0.00 | 0.00 | 40 | 1017.4 |
| 20260502012152 | 59 | 38 | 0.0 | 6.0 | 0.00 | 0.00 | 0.00 | 40 | 1017.3 |
| 20260502011648 | 59 | 41 | 1.0 | 2.0 | 0.00 | 0.00 | 0.00 | 39 | 1017.0 |
| 20260502011144 | 59 | 33 | 0.0 | 2.0 | 0.00 | 0.00 | 0.00 | 40 | 1017.1 |
| 20260502010642 | 60 | 308 | 3.0 | 3.0 | 0.00 | 0.00 | 0.00 | 39 | 1017.1 |
| 20260502010138 | 60 | 319 | 3.0 | 5.0 | 0.00 | 0.00 | 0.00 | 38 | 1016.7 |
| 20260502005635 | 60 | 31 | 3.0 | 5.0 | 0.00 | 0.00 | 0.00 | 37 | 1016.8 |
| 20260502005133 | 61 | 26 | 0.0 | 7.0 | 0.00 | 0.00 | 0.00 | 38 | 1016.8 |
| 20260502004628 | 61 | 17 | 1.0 | 2.0 | 0.00 | 0.00 | 0.00 | 36 | 1016.7 |
| 20260502004126 | 62 | 9 | 3.0 | 5.0 | 0.00 | 0.00 | 0.00 | 36 | 1016.7 |
| 20260502003624 | 62 | 333 | 4.0 | 5.0 | 0.00 | 0.00 | 0.00 | 35 | 1016.5 |
| 20260502003120 | 63 | 33 | 1.0 | 5.0 | 0.00 | 0.00 | 0.00 | 35 | 1016.5 |
| 20260502002616 | 62 | 300 | 5.0 | 7.0 | 0.00 | 0.00 | 0.00 | 34 | 1016.6 |
| 20260502002114 | 63 | 279 | 5.0 | 8.0 | 0.00 | 0.00 | 0.00 | 34 | 1016.4 |
| 20260502001612 | 63 | 275 | 1.0 | 8.0 | 0.00 | 0.00 | 0.00 | 34 | 1016.2 |
| 20260502001109 | 63 | 303 | 4.0 | 5.0 | 0.00 | 0.00 | 0.00 | 33 | 1016.3 |
| 20260502000607 | 63 | 17 | 2.0 | 8.0 | 0.00 | 0.00 | 0.00 | 33 | 1016.3 |
| 20260502000104 | 64 | 349 | 2.0 | 7.0 | 0.00 | 0.00 | 0.00 | 33 | 1016.3 |
| 20260501235600 | 64 | 27 | 2.0 | 5.0 | 0.00 | 0.00 | 0.00 | 34 | 1016.0 |
| 20260501235056 | 64 | 7 | 2.0 | 3.0 | 0.00 | 0.00 | 0.00 | 33 | 1016.0 |
| 20260501234551 | 63 | 24 | 2.0 | 7.0 | 0.00 | 0.00 | 0.00 | 32 | 1016.2 |
| 20260501234049 | 64 | 339 | 4.0 | 8.0 | 0.00 | 0.00 | 0.00 | 32 | 1016.2 |
| 20260501233547 | 64 | 315 | 6.0 | 9.0 | 0.00 | 0.00 | 0.00 | 31 | 1016.2 |
| 20260501233044 | 63 | 78 | 2.0 | 3.0 | 0.00 | 0.00 | 0.00 | 32 | 1016.2 |
| 20260501232540 | 64 | 319 | 3.0 | 11.0 | 0.00 | 0.00 | 0.00 | 31 | 1016.2 |
| 20260501232038 | 64 | 311 | 9.0 | 10.0 | 0.00 | 0.00 | 0.00 | 31 | 1016.3 |
| 20260501231535 | 63 | 301 | 1.0 | 7.0 | 0.00 | 0.00 | 0.00 | 32 | 1015.9 |
| 20260501231033 | 63 | 297 | 3.0 | 11.0 | 0.00 | 0.00 | 0.00 | 31 | 1016.0 |
| 20260501230532 | 63 | 44 | 1.0 | 6.0 | 0.00 | 0.00 | 0.00 | 33 | 1016.2 |
| 20260501230029 | 63 | 312 | 3.0 | 7.0 | 0.00 | 0.00 | 0.00 | 32 | 1016.0 |
| 20260501225527 | 64 | 43 | 2.0 | 6.0 | 0.00 | 0.00 | 0.00 | 31 | 1016.3 |
| 20260501225023 | 65 | 315 | 3.0 | 8.0 | 0.00 | 0.00 | 0.00 | 30 | 1015.8 |
| 20260501224521 | 65 | 9 | 3.0 | 6.0 | 0.00 | 0.00 | 0.00 | 31 | 1016.0 |
| 20260501224017 | 65 | 299 | 5.0 | 8.0 | 0.00 | 0.00 | 0.00 | 30 | 1016.0 |